Regional Weather Roundup
Issued by NWS

Home | Current Version | Previous Version | Text Only | Print | Product List | Glossary On
Versions: 1 2 3 4 5 6 7 8 9 10 11 12 13 14 15 16 17 18 19 20 21 22 23 24 25 26 27 28 29 30 31 32 33 34 35 36 37 38 39 40 41 42 43 44 45 46 47 48 49 50
000
ASUS45 KBOU 301507
RWRCO

WEATHER ROUNDUP FOR COLORADO
NATIONAL WEATHER SERVICE DENVER/BOULDER CO
900 AM MDT WED JUL 30 2014

NOTE: "FAIR" INDICATES FEW OR NO CLOUDS BELOW 12000 FEET WITH NO
SIGNIFICANT WEATHER AND/OR OBSTRUCTIONS TO VISIBILITY.

COZ001>005-013-030-031-301600-
...NORTHWEST COLORADO...

CITY           SKY/WX    TMP DP  RH WIND       PRES   REMARKS
CRAIG          CLOUDY    56 N/A N/A W7        30.31R
HAYDEN         CLOUDY    57  54  88 W6        30.32S
MEEKER         PTSUNNY   58  53  84 CALM      30.32S
MOUNT WERNER   NOT AVBL
STEAMBOAT SPGS CLOUDY    55  54  96 CALM      30.34R
WALDEN         CLOUDY    52  48  87 E5        30.41R
$$

COZ006>008-011-301600-
...WEST CENTRAL VALLEYS...

CITY           SKY/WX    TMP DP  RH WIND       PRES   REMARKS
GRAND JUNCTION SUNNY     67  57  70 SE8       30.22S
MONTROSE       SUNNY     65  54  67 CALM      30.28F
EAGLE          PTSUNNY   61  55  82 CALM      30.35R
RIFLE          MOSUNNY   62  55  77 NE5       30.27S
DELTA          SUNNY     66  58  76 SE3       30.26R
NUCLA          SUNNY     64  54  68 CALM      30.31S
$$

COZ017>023-064>068-301600-
...SOUTHWEST COLORADO...

CITY           SKY/WX    TMP DP  RH WIND       PRES   REMARKS
DURANGO        MOSUNNY   66  51  58 VRB3      30.30R
CORTEZ         SUNNY     71  52  50 VRB5      30.25F
PAGOSA SPRINGS MOSUNNY   65  48  53 E3        30.38S
TELLURIDE      SUNNY     59  48  67 CALM      30.45S
WOLF CREEK PAS NOT AVBL
$$

COZ009-010-012-014-032>034-037-058>063-301600-
...CENTRAL COLORADO...

CITY           SKY/WX    TMP DP  RH WIND       PRES   REMARKS
ASPEN          PTSUNNY   56  50  80 CALM      30.38S
BUENA VISTA    CLOUDY    58  50  74 SE3       30.40R
COPPER MTN     CLOUDY    46  41  81 W8        30.63R
BERTHOUD PASS  FOG       37  36  93 SE5       30.67R VSB<1/4
COTTONWOOD PAS CLOUDY    55  48  76 SE5       30.51R
GUNNISON       MOSUNNY   57  48  72 CALM      30.41S
KREMMLING      CLOUDY    55  52  88 E3        30.38S
LEADVILLE      CLOUDY    52  44  74 CALM      30.49R
MONARCH PASS   CLOUDY    45  41  87 CALM      30.73R
SALIDA         CLOUDY    58  55  90 CALM      30.45S
SUNLIGHT       CLOUDY    50  46  87 CALM      30.57R
WILKERSON PASS LGT RAIN  45  43  93 CALM      30.61S VSB<1/4
$$

COZ069>075-301600-
...SAN LUIS VALLEY/SANGRE DE CRISTO MOUNTAINS...

CITY           SKY/WX    TMP DP  RH WIND       PRES   REMARKS
ALAMOSA        SUNNY     60  55  83 S5        30.36R
LA VETA PASS   FOG       48  46  93 CALM      30.52S VSB 1
SAGUACHE       MOSUNNY   59  48  67 NW5       30.39R
$$

COZ035-036-038>040-301600-
...NORTHERN COLORADO FRONT RANGE...

CITY           SKY/WX    TMP DP  RH WIND       PRES   REMARKS
DENVER INTL AP LGT RAIN  59  57  93 NE14      30.32R FOG
DMNS CITY PARK   N/A     58  57  96 NE8       30.32R
AURORA         LGT RAIN  58  58 100 NE9       30.33R FOG
FRONT RANGE AP LGT RAIN  61  59  94 NE15      30.33
ERIE MUNI ARPT CLOUDY    60  58  94 NE8       30.32R
BOULDER MUN AP   N/A     59  59 100 MISG        N/A
CENTENNIAL     LGT RAIN  57  55  93 E6        30.33R FOG
BROOMFIELD     NOT AVBL
FORT COLLINS   CLOUDY    59  57  94 NE8       30.34R
LONGMONT       DRIZZLE   63  59  89 NE7       30.33R
$$

COZ041-046-047-076>085-087-088-301600-
...PIKES PEAK/PALMER DIVIDE AND SOUTHERN FOOTHILLS...

CITY           SKY/WX    TMP DP  RH WIND       PRES   REMARKS
COLO. SPRINGS  LGT RAIN  58  55  90 NE8       30.34R FOG
A. F. ACADEMY  DRIZZLE   57  56  99 NW8       30.35R
ELLICOTT       LGT RAIN  58  56  93 NE9       30.32R
FALCON         LGT RAIN  55  54  97 NE10      30.38R
FORT CARSON    DRIZZLE   58  58 100 NE7       30.32R FOG
LIMON          CLOUDY    59  56  89 NE14      30.31R
MONUMENT HILL  DRIZZLE   54  52  94 E3        30.37S
TRINIDAD       CLOUDY    60  57  89 NE9       30.30R
$$

COZ042>045-048>051-090-091-301600-
...NORTHEAST COLORADO...

CITY           SKY/WX    TMP DP  RH WIND       PRES   REMARKS
GREELEY ARPT   NOT AVBL
AKRON          CLOUDY    59  58  96 E8        30.29R
BURLINGTON     CLOUDY    61  56  83 E16       30.25R
WRAY             N/A     63  61  96 E5        30.27R
STERLING       CLOUDY    64  63  94 CALM      30.27R
HOLYOKE        CLOUDY    64  59  82 CALM      30.27S
FORT MORGAN    CLOUDY    60  58  94 NE7       30.30R
$$

COZ086-089-092>099-301600-
...SOUTHEAST COLORADO...

CITY           SKY/WX    TMP DP  RH WIND       PRES   REMARKS
PUEBLO         LGT RAIN  63  60  90 E9        30.26R
LA JUNTA       CLOUDY    65  60  84 NE16      30.23R
LAMAR          LGT RAIN  62  60  93 NE16G24   30.18R FOG
SPRINGFIELD      N/A     64  62  93 N18       30.17R
$$


USA.gov is the U.S. government's official web portal to all federal, state and local government web resources and services.